Voltar ao catálogo

SL-14 R/B

AtivoPO
NORAD 17567·ROCKET BODY·🇷🇺 Russia

Lançado Mar 3, 1987 de Plesetsk Cosmodrome

Loading…

Próximas Passagens (próximas 24 horas)

TLE

AtualizadoSource: Space-Track

Época: Sep 14, 2026, 11:47 UTC

1 17567U 87024B   26257.49113197  .00000272  00000-0  28131-4 0  9994
2 17567  82.5248 275.3146 0018126   0.5344 359.5888 14.86265437116177

Acompanhe SL-14 R/B em tempo real com AllMySat

Download on the App Store